Location: Aranbee
(34.0885°N, 118.2342°W)
Time: 09:13:05
(UTC+00:00)

Courier 1B Rocket - Pass Details

Date: 29 November 2020
Orbit: 920 x 1202 km, 28.2° (Epoch: 27 January)

Event Time Altitude Azimuth Distance (km) Brightness Sun altitude
Rises 18:23:31 0° 269° (W) 4,014 8.0 31.3°
Reaches altitude 10° 18:26:53 10° 258° (WSW) 3,011 7.6 31.5°
Maximum altitude 18:32:46 26° 205° (SSW) 1,995 7.6 31.9°
Drops below altitude 10° 18:38:20 10° 151° (SSE) 2,837 8.9 32.3°
Sets 18:41:26 0° 139° (SE) 3,739 9.0 32.5°
